TimeAKST,TemperatureF,Dew PointF,Humidity,Sea Level PressureIn,VisibilityMPH,Wind Direction,Wind SpeedMPH,Gust SpeedMPH,PrecipitationIn,Events,Conditions,WindDirDegrees,DateUTC
12:53 AM,28.9,21.0,72,30.14,4.0,NNE,3.5,-,0.00,Snow,Light Snow,20,2013-02-13 09:53:00
1:53 AM,28.9,21.9,75,30.15,4.0,Calm,Calm,-,0.00,Snow,Light Snow,0,2013-02-13 10:53:00
2:26 AM,28.4,23.0,80,30.15,2.5,Calm,Calm,-,0.00,Snow,Light Snow,0,2013-02-13 11:26:00
3:11 AM,28.4,24.8,86,30.16,1.0,Calm,Calm,-,0.01,Snow,Light Snow,0,2013-02-13 12:11:00
3:23 AM,28.4,24.8,86,30.17,2.0,Calm,Calm,-,0.01,Snow,Light Snow,0,2013-02-13 12:23:00
3:32 AM,28.4,24.8,86,30.17,6.0,Calm,Calm,-,0.01,Snow,Light Snow,0,2013-02-13 12:32:00
3:53 AM,28.0,24.1,85,30.18,3.0,Calm,Calm,-,0.01,Snow,Light Snow,0,2013-02-13 12:53:00
4:07 AM,28.4,24.8,86,30.18,2.0,Calm,Calm,-,0.00,Snow,Light Snow,0,2013-02-13 13:07:00
4:31 AM,28.4,24.8,86,30.18,3.0,Calm,Calm,-,0.00,Snow,Light Snow,0,2013-02-13 13:31:00
4:51 AM,28.4,24.8,86,30.17,6.0,Calm,Calm,-,0.00,Snow,Light Snow,0,2013-02-13 13:51:00
4:53 AM,28.0,25.0,88,30.18,6.0,Calm,Calm,-,0.00,Snow,Light Snow,0,2013-02-13 13:53:00
5:53 AM,28.9,26.1,89,30.18,5.0,Calm,Calm,-,0.00,Snow,Light Snow,0,2013-02-13 14:53:00
6:23 AM,28.4,26.6,93,30.18,3.0,NW,3.5,-,0.00,Snow,Light Snow,320,2013-02-13 15:23:00
6:32 AM,28.4,26.6,93,30.18,2.5,Calm,Calm,-,0.00,Snow,Light Snow,0,2013-02-13 15:32:00
6:53 AM,28.9,27.0,92,30.18,2.0,Calm,Calm,-,0.00,Snow,Light Snow,0,2013-02-13 15:53:00
7:53 AM,28.9,27.0,92,30.19,2.0,Calm,Calm,-,0.01,Snow,Light Snow,0,2013-02-13 16:53:00
8:06 AM,28.4,26.6,93,30.20,2.0,Calm,Calm,-,0.00,Snow,Light Snow,0,2013-02-13 17:06:00
8:13 AM,30.2,28.4,93,30.20,1.8,Calm,Calm,-,0.00,Snow,Light Snow,0,2013-02-13 17:13:00
8:20 AM,30.2,26.6,86,30.20,1.5,Calm,Calm,-,0.00,Snow,Light Snow,0,2013-02-13 17:20:00
8:27 AM,30.2,26.6,86,30.20,1.5,Calm,Calm,-,0.00,Snow,Light Snow,0,2013-02-13 17:27:00
8:37 AM,30.2,26.6,86,30.20,1.2,NE,3.5,-,0.00,Snow,Light Snow,50,2013-02-13 17:37:00
8:44 AM,30.2,26.6,86,30.20,1.8,NNE,3.5,-,0.00,Snow,Light Snow,30,2013-02-13 17:44:00
8:53 AM,30.0,27.0,88,30.21,1.8,NNE,3.5,-,0.00,Snow,Light Snow,20,2013-02-13 17:53:00
9:21 AM,30.2,28.4,93,30.21,1.2,Calm,Calm,-,0.00,Snow,Light Snow,0,2013-02-13 18:21:00
9:40 AM,30.2,30.2,100,30.21,0.8,Calm,Calm,-,0.01,Snow,Light Snow,0,2013-02-13 18:40:00
9:44 AM,30.2,30.2,100,30.21,1.0,Calm,Calm,-,0.01,Snow,Light Snow,0,2013-02-13 18:44:00
9:53 AM,30.0,30.0,100,30.22,1.0,Calm,Calm,-,0.01,Snow,Light Snow,0,2013-02-13 18:53:00
10:05 AM,30.2,30.2,100,30.22,1.5,Calm,Calm,-,0.00,Snow,Light Snow,0,2013-02-13 19:05:00
10:18 AM,30.2,28.4,93,30.22,2.0,Calm,Calm,-,0.00,Snow,Light Snow,0,2013-02-13 19:18:00
10:35 AM,30.2,28.4,93,30.22,2.0,SW,3.5,-,0.00,Snow,Light Snow,230,2013-02-13 19:35:00
10:53 AM,30.0,28.0,92,30.23,2.5,SSW,6.9,-,0.00,Snow,Light Snow,200,2013-02-13 19:53:00
11:08 AM,30.2,28.4,93,30.23,3.0,Calm,Calm,-,0.00,Snow,Light Snow,0,2013-02-13 20:08:00
11:53 AM,32.0,28.9,88,30.22,4.0,Calm,Calm,-,0.00,,Overcast,0,2013-02-13 20:53:00
12:07 PM,30.2,28.4,93,30.22,2.5,Calm,Calm,-,0.00,Snow,Light Snow,0,2013-02-13 21:07:00
12:27 PM,30.2,28.4,93,30.22,3.0,Calm,Calm,-,0.00,Snow,Light Snow,0,2013-02-13 21:27:00
12:53 PM,32.0,28.9,88,30.22,8.0,Calm,Calm,-,0.00,,Overcast,0,2013-02-13 21:53:00
1:53 PM,32.0,28.9,88,30.22,8.0,South,3.5,-,0.00,,Overcast,180,2013-02-13 22:53:00
2:07 PM,32.0,28.4,87,30.22,10.0,Calm,Calm,-,0.00,,Overcast,0,2013-02-13 23:07:00
2:50 PM,32.0,28.4,87,30.21,9.0,Calm,Calm,-,0.00,Snow,Light Snow,0,2013-02-13 23:50:00
2:53 PM,32.0,28.0,85,30.22,9.0,Calm,Calm,-,0.00,Snow,Light Snow,0,2013-02-13 23:53:00
3:14 PM,32.0,28.4,87,30.20,3.0,Calm,Calm,-,0.00,Snow,Light Snow,0,2013-02-14 00:14:00
3:22 PM,32.0,28.4,87,30.20,2.5,Calm,Calm,-,0.00,Snow,Light Snow,0,2013-02-14 00:22:00
3:27 PM,32.0,28.4,87,30.20,3.0,Calm,Calm,-,0.00,Snow,Light Snow,0,2013-02-14 00:27:00
3:40 PM,32.0,28.4,87,30.19,3.0,Calm,Calm,-,0.00,Snow,Light Snow,0,2013-02-14 00:40:00
3:53 PM,32.0,28.9,88,30.19,3.0,Calm,Calm,-,0.00,Snow,Light Snow,0,2013-02-14 00:53:00
4:53 PM,32.0,30.0,92,30.19,7.0,Calm,Calm,-,0.00,,Overcast,0,2013-02-14 01:53:00
5:10 PM,32.0,30.2,93,30.18,7.0,Calm,Calm,-,0.00,,Overcast,0,2013-02-14 02:10:00
5:53 PM,32.0,30.0,92,30.17,8.0,Calm,Calm,-,0.00,Snow,Light Snow,0,2013-02-14 02:53:00
6:53 PM,32.0,30.0,92,30.15,2.0,Calm,Calm,-,0.01,Snow,Light Snow,0,2013-02-14 03:53:00
7:08 PM,32.0,30.2,93,30.14,1.8,NE,3.5,-,0.00,Snow,Light Snow,40,2013-02-14 04:08:00
7:16 PM,32.0,28.4,87,30.13,1.5,Calm,Calm,-,0.01,Snow,Light Snow,0,2013-02-14 04:16:00
7:40 PM,32.0,30.2,93,30.14,2.0,Calm,Calm,-,0.01,Snow,Light Snow,0,2013-02-14 04:40:00
7:50 PM,32.0,30.2,93,30.15,2.0,Calm,Calm,-,0.01,Snow,Light Snow,0,2013-02-14 04:50:00
7:53 PM,32.0,30.0,92,30.16,2.0,Calm,Calm,-,0.01,Snow,Light Snow,0,2013-02-14 04:53:00
8:00 PM,32.0,30.2,93,30.15,2.0,Calm,Calm,-,0.00,Snow,Light Snow,0,2013-02-14 05:00:00
8:07 PM,32.0,30.2,93,30.14,1.8,Calm,Calm,-,0.01,Snow,Light Snow,0,2013-02-14 05:07:00
8:14 PM,32.0,30.2,93,30.15,2.0,Calm,Calm,-,0.01,Snow,Light Snow,0,2013-02-14 05:14:00
8:16 PM,32.0,30.2,93,30.15,1.8,Calm,Calm,-,0.01,Snow,Light Snow,0,2013-02-14 05:16:00
8:22 PM,32.0,30.2,93,30.14,1.2,Calm,Calm,-,0.01,Snow,Light Snow,0,2013-02-14 05:22:00
8:34 PM,32.0,30.2,93,30.13,2.0,Calm,Calm,-,0.02,Snow,Light Snow,0,2013-02-14 05:34:00
8:40 PM,32.0,30.2,93,30.13,3.0,Calm,Calm,-,0.02,Snow,Light Snow,0,2013-02-14 05:40:00
8:48 PM,32.0,30.2,93,30.13,4.0,Calm,Calm,-,0.02,Snow,Light Snow,0,2013-02-14 05:48:00
8:53 PM,32.0,30.0,92,30.13,6.0,Calm,Calm,-,0.02,Snow,Light Snow,0,2013-02-14 05:53:00
9:04 PM,32.0,30.2,93,30.13,9.0,North,3.5,-,0.00,Snow,Light Snow,10,2013-02-14 06:04:00
9:15 PM,32.0,30.2,93,30.13,7.0,Calm,Calm,-,0.00,Snow,Light Snow,0,2013-02-14 06:15:00
9:53 PM,34.0,30.9,89,30.14,9.0,Variable,4.6,-,0.00,,Overcast,0,2013-02-14 06:53:00
10:05 PM,35.6,30.2,81,30.12,10.0,SSW,12.7,-,0.00,Rain,Light Rain,210,2013-02-14 07:05:00
10:30 PM,35.6,30.2,81,30.11,10.0,SSW,10.4,19.6,0.00,,Overcast,200,2013-02-14 07:30:00
10:53 PM,36.0,30.9,82,30.10,10.0,SSW,12.7,21.9,0.00,Rain,Light Rain,200,2013-02-14 07:53:00
11:53 PM,35.1,30.9,85,30.09,10.0,Calm,Calm,-,0.00,Rain,Light Rain,0,2013-02-14 08:53:00